カタログに戻る

KUIPER-00073

運用中通信LEO
NORAD 64820·PAYLOAD·🇺🇸 United States

打ち上げ Jul 16, 2025 から Cape Canaveral Space Force Station

Loading…

次のパス (今後24時間)

TLE

最新Source: CelesTrak SupGP

元期: Sep 14, 2026, 21:08 UTC

1 64820C 25151E   26257.88106482 -.00001513  00000+0 -19806-3 0  2578
2 64820  51.8989 186.4731 0001102  70.1691 143.9598 14.79934784    16

AllMySatでKUIPER-00073をリアルタイム追跡

Download on the App Store